Погода в Падалях

Россия / Хабаровский край     50°12′58″N   136°38′53″E
темп.,
°C
ветер,
м/с
пор.,
м/с
влажн.,
%
обл.,
%
осадки,
мм/ч
давл.,
гПа
погр.,
м
19 сентября, вс
вс1901:00+7зюз22590 0.0 101432
04:00+6зюз22650 0.0 101341
07:00+5зюз12663 0.0 101321
10:00+12юз234299 0.0 1014519
13:00+17з472393 0.0 10123213
16:00+17сз572797 0.0 10112783
19:00+12сз354846 0.0 101392
22:00+9сз235342 0.0 101434
20 сентября, пн
пн2001:00+7зюз11625 0.0 101522
04:00+5юз11730 0.0 101612
07:00+4ююз22780 0.0 101720
10:00+11ююз46522 0.0 1016508
13:00+15ююз56384 0.0 1015859
16:00+18ююз45320 0.0 1014863
19:00+12юз22522 0.0 101424
22:00+9юз22645 0.0 101526
21 сентября, вт
вт2101:00+7ююз117524 0.0 101517
04:00+6ююз118674 0.0 101517
07:00+6ю1187100 0.0 101613
10:00+11ю2362100 0.0 1015408
13:00+15ююз3547100 0.0 1013785
16:00+15ююз3547100 0.0 1012736
19:00+11ююз1262100 0.0 101314
22:00+10с1169100 0.0 101311
22 сентября, ср
ср2201:00+8с238010 0.0 101444
04:00+8с41179100 0.0 1013274
07:00+9ссв61472100 0.0 1014527
10:00+12ссв71255100 0.0 1015608
13:00+14ссв7947100 0.0 10161023
16:00+15св5846100 0.0 1016950
19:00+12св51152100 0.0 1018437
22:00+10с4106199 0.0 1020336
23 сентября, чт
чт2301:00+7с37746 0.0 1022168
04:00+6с397781 0.0 1022213
07:00+6ссв4127747 0.0 1024355
10:00+11ссв69585 0.0 1024613
13:00+15св57482 0.0 10241368
16:00+16св56442 0.0 10231484
19:00+11с34645 0.0 102480
22:00+8с36755 0.0 1026127